Content
SEND FEEDBACK

Turkmenistan Flag

ASHGABAT, TURKMENISTAN


Home > Asia > Turkmenistan
Elevation: 236 meters     Latitude: 37 58N     Longitude: 058 20E

WEATHER
 
SELECT A DAY
Number of Records: 200,906;   Date Range: 3/15/97 - 3/22/16
 
SHARE

PRINT THIS DATA

[ ← Previous Day ]
WEATHER ALMANAC - 18 JULY, 2013
[ Next Day → ]
[ °F ]   °C
Weather ElementAverageHighLow
Temperature36.1 °C44 °C (3:00 pm)27 °C (6:00 am)
Dewpoint6.9 °C15 °C (8:00 am)2.8 °C (5:00 pm)
Humidity16.5 %29 % (8:00 am)4 % (5:00 pm)
Barometer1004.4 hPa1007.1 hPa (8:00 am)1001.4 hPa (8:00 pm)
Wind Speed16.4 km/h28.8 km/h (5:00 pm)
Wind Gust32.3 km/h (3:30 pm)
Weather ElementAverage
Visibility9.8 km
Wind DirectionSSE (167.3 °)

Weather ElementTotal
Precipitation---
Cooling Degree Days17.2 (Base 18.3)
Growing Degree Days25.5 (Base 10)
Averaged from 40 records on 18 July, 2013
WEATHER CONDITIONS BREAKOUT
WIND DIRECTION BREAKOUT
WEATHER BY HOUR - 18 JULY, 2013
[ °F ]   °C
Local TimeTemperatureDewpointHumidityBarometerVisibilityWind DirectionWind SpeedGust SpeedPrecipitationEventsConditions
1:00 AM31 °C4 °C18 %1005.1 hPa10 kmSouth (190°)10.8 km/hClear
2:00 AM30.6 °C5.6 °C12 %1004.1 hPa9.7 kmSouth (190°)3.5 km/h
2:00 AM30 °C4 °C19 %1005.1 hPa8 kmSouth (190°)14.3 km/hClear
3:00 AM29 °C5 °C22 %1005.1 hPa10 kmSouth (180°)10.8 km/hClear
4:00 AM28 °C5 °C23 %1004.1 hPa10 kmSouth (190°)10.8 km/hClear
5:00 AM28 °C5 °C23 %1005.1 hPa10 kmSouth (170°)10.8 km/hClear
5:00 AM27.8 °C7.8 °C18 %1004.4 hPa9.7 kmSSE (150°)10.8 km/h
6:00 AM27 °C5 °C24 %1005.1 hPa9 kmVariable3.5 km/hClear
7:00 AM28 °C7 °C26 %1006.1 hPa10 kmWest (270°)10.8 km/hClear
8:00 AM31 °C11 °C29 %1007.1 hPa10 kmWNW (290°)18 km/hClear
8:00 AM30.6 °C15 °C29 %1005.4 hPa9.7 kmWNW (290°)18 km/h
9:00 AM32 °C9 °C24 %1007.1 hPa10 kmWNW (300°)18 km/hClear
9:30 AM33 °C6 °C18 %1007.1 hPa10 kmWNW (300°)21.6 km/hClear
10:00 AM33 °C10 °C24 %1007.1 hPa10 kmWNW (300°)21.6 km/hClear
10:30 AM34 °C12 °C26 %1007.1 hPa10 kmWNW (300°)21.6 km/hClear
11:00 AM35 °C12 °C25 %1007.1 hPa10 kmNW (310°)18 km/hClear
11:00 AM35 °C13.3 °C18 %1006.1 hPa9.7 kmNW (310°)18 km/h
12:00 PM37 °C13 °C24 %1006.1 hPa10 kmNW (320°)14.3 km/hClear
1:00 PM40 °C11 °C17 %1006.1 hPa10 kmNW (310°)10.8 km/hClear
1:30 PM41 °C8 °C14 %1005.1 hPa10 kmCalmClear
2:00 PM42 °C6 °C11 %1005.1 hPa10 kmNNE (20°)10.8 km/hClear
2:00 PM40.6 °C10 °C9 %1004.4 hPa9.7 kmNE (50°)14.3 km/h
2:30 PM43 °C4 °C9 %1004.1 hPa10 kmSE (140°)10.8 km/hClear
3:00 PM44 °C3 °C8 %1004.1 hPa10 kmEast (100°)21.6 km/hClear
3:30 PM43 °C3 °C9 %1004.1 hPa10 kmEast (90°)14.3 km/h32.3 km/hClear
4:00 PM43 °C3 °C9 %1003 hPa10 kmEast (80°)25.3 km/hClear
4:30 PM43 °C3 °C9 %1003 hPa10 kmEast (90°)25.3 km/hClear
5:00 PM42.8 °C2.8 °C4 %1002 hPa9.7 kmEast (90°)28.8 km/h
5:00 PM43 °C4 °C9 %1003 hPa10 kmEast (90°)28.8 km/hClear
5:30 PM42 °C3 °C9 %1002 hPa10 kmEast (90°)28.8 km/hClear
6:00 PM42 °C4 °C10 %1002 hPa10 kmEast (90°)28.8 km/hClear
6:30 PM41 °C4 °C10 %1002 hPa10 kmEast (90°)25.3 km/hClear
7:00 PM41 °C4 °C10 %1002 hPa10 kmEast (100°)25.3 km/hClear
7:30 PM40 °C5 °C12 %1002 hPa10 kmEast (90°)21.6 km/hClear
8:00 PM38.9 °C8.3 °C9 %1001.4 hPa9.7 kmEast (100°)21.6 km/h
8:00 PM38 °C6 °C14 %1003 hPa10 kmEast (100°)18 km/hClear
9:00 PM36 °C6 °C16 %1003 hPa10 kmEast (90°)14.3 km/hClear
10:00 PM34 °C7 °C19 %1003 hPa10 kmSE (130°)7.2 km/hClear
11:00 PM32.2 °C12.8 °C21 %1002.7 hPa9.7 kmWSW (250°)10.8 km/h
11:00 PM33 °C8 °C21 %1004.1 hPa10 kmWSW (250°)10.8 km/hClear
Hourly data recorded from UTAA, located 0 kilometers away from Ashgabat, Turkmenistan




STORIES FROM OUR PARTNERS